Current Weather Conditions: station 63115

sailwx.info

Last reported at 2016-Oct-18 10:09 UTC.
Time now 2017-Feb-25 19:00 UTC

Location: N 61°36' E 001°18'.
View on Google Maps.

See reports from other nearby stations

  
Tides and Currents Weather Stations Pressure Air Temp Water Temp Dewpoint Dewpoint Depression Visibility Wind Speed Wind Dir Waves Ship Positions
date/time (UTC)wind fromknots sea level pressurealtimeterstation pressurevisibilityair tempwater tempwave heightnotes
2017-Feb-25 17:00 260 24 10.8 7.4 5.3
2017-Feb-25 16:00 270 25 10.8 7.8 5.2
2017-Feb-25 15:00 270 27 10.8 7.8 5.3
2017-Feb-25 14:00 270 27 5.4 7.9 5.9
2017-Feb-25 13:00 230 27 1.110.1 5.3
2017-Feb-25 12:00 200 27 1.110.8 5.9
2017-Feb-25 11:00 170 27 1.110.0 5.8
2017-Feb-25 10:00 170 29 1.1 9.7 6.2
2017-Feb-25 09:00 160 34 1.1 8.4 6.4
2017-Feb-25 08:00 150 36 2.2 7.0 6.4
2017-Feb-25 07:00 150 36 1.1 6.7 6.0
2017-Feb-25 06:00 140 40 1.1 5.7 5.6
2017-Feb-25 05:00 140 36 2.2 5.6 4.4
2017-Feb-25 04:00 140 34 2.2 4.9 4.1
2017-Feb-25 03:00 140 29 5.4 5.4 4.0
2017-Feb-25 02:00 150 27 10.8 5.9 3.4
2017-Feb-25 01:00 150 27 10.8 6.6 3.1
2017-Feb-25 00:00 150 22 10.8 6.8 3.2
2017-Feb-24 23:00 140 20 27.0 5.7 3.3
2017-Feb-24 22:00 130 17 27.0 4.8 3.5
2017-Feb-24 21:00 130 13 27.0 4.4 4.0
2017-Feb-24 20:00 120 12 10.8 3.8 4.0
2017-Feb-24 19:00 120 6 10.8 3.8 3.9
2017-Feb-24 18:00 070 7 10.8 5.0 3.9
2017-Feb-24 17:00 040 9 10.8 6.0 3.8
2017-Feb-24 16:00 040 6 10.8 4.8 3.4
2017-Feb-24 15:00 030 8 10.8 6.6 3.8
2017-Feb-24 14:00 350 12 27.0 3.0 3.4
2017-Feb-24 13:00 350 11 27.0 2.9 3.6
2017-Feb-24 12:00 340 15 10.8 2.6 3.5
2017-Feb-24 11:00 340 12 27.0 3.0 3.6
2017-Feb-24 10:00 340 13 27.0 2.6 4.0
2017-Feb-24 09:00 340 20 10.8 2.0 4.0
2017-Feb-24 08:00 340 14 27.0 2.7 3.7
2017-Feb-24 07:00 350 18 27.0 2.6 4.1
2017-Feb-24 06:00 340 17 10.8 2.4 3.9
2017-Feb-24 05:00 340 13 27.0 0.4 3.8
2017-Feb-24 04:00 340 20 0.5-0.0 4.0
2017-Feb-24 03:00 340 18 5.4 1.8 3.7
2017-Feb-24 02:00 340 17 27.0 2.8 3.6
2017-Feb-24 01:00 330 20 5.4 1.5 3.8
2017-Feb-24 00:00 340 17 27.0 2.5 3.5
2017-Feb-23 23:00 330 19 27.0 1.7 3.6
2017-Feb-23 22:00 020 18 10.8 1.0 3.5
2017-Feb-23 21:00 360 15 27.0 2.0 3.8
2017-Feb-23 20:00 020 17 2.2 1.5 4.1
2017-Feb-23 19:00 340 18 0.5-1.0 4.0